sat.trackr.live / text

‹ back to catalog

KUIPER-00024

NORAD 63738 · 2025-088Q

PAYLOAD ACTIVE UNKNOWN

§ Identity

Operator
Country
US
Launch date
2025-04-28
Launch site
AFETR
Launch vehicle
Mass (kg)
RCS (m²)

External: N2YO · Heavens-Above · Gunter

§ Orbital elements

Epoch: 2026-09-21T18:28:28.513344Z

Period
97.30 min
Inclination
51.9039°
Eccentricity
0.0000391
Mean motion
14.79927607 rev/d
Perigee alt
629.3 km
Apogee alt
629.8 km
Semi-major
7,007.7 km
B*
8.9144e-5
RAAN
306.1020°
Arg perigee
58.9554°
Mean anomaly
301.1447°
Rev number
7,709

§ Raw data

KUIPER-000241 63738U 25088Q   26264.76977446  .00000458  00000+0  89144-4 0  99962 63738  51.9039 306.1020 0000391  58.9554 301.1447 14.79927607 77092

JSON: /api/v1/satellites/63738 · /tle

For live sub-satellite position, see the globe view (requires WebGL).

§ Visibility from observer

Set your observer location to see the next 7 days of passes ≥ 10°. The values pass through the URL so the page stays shareable.

No JS? Fill the form by hand. The geolocation button needs JavaScript.